SCP
-0 -0 -0 -0 0 0 0 0 0 0 0 0 0 0 0 0 0 0 0 0 0 0 0 0 0 0 0 0 0 0 0 0 0 0 0 0 0 0 0 0 0 0 0 0 0 0 0 0 0 0 0 0 0 0
-0 -0 -0 -0 0 0 0 0 0 0 0 0 0 0 0 0 0 0 0 0 0 0 0 0 0 0 0 0 0 0 0 0 0 0 0 0 0 0 0 0 0 0 0 0 0 0 0 0 0 0 0 0 0 0
-0 -0 -0 -0 -0 -0 0 0 0 0 0 0 0 0 0 0 0 0 0 0 0 0 0 0 0 0 0 0 0 0 0 0 0 0 0 0 0 0 0 0 0 0 0 0 0 0 0 0 0 0 0 0 -0 -0
-0 -0 -0 -0 -0 -0 -0 -0 -0 -0 -0 0 0 0 -0 -0 -0 0 0 0 0 0 0 0 0 0 0 0 0 0 0 0 0 0 0 0 0 0 0 0 0 0 0 0 0 0 0 0 0 0 0 0 -0 -0
-0 -0 -0 -0 -0 -0 -0 -0 -0 -0 -0 -0 -0 -0 -0 -0 -0 0 0 0 0 0 0 0 0 0 0 0 0 0 0 0 0 0 0 0 0 0 0 0 0 0 0 0 0 0 0 0 0 0 0 0 -0 -0
-0 -0 -0 -0 -0 -0 -0 -0 -0 -0 -0 -0 -0 0 0 0 0 0 0 0 0 0 0 0 0 0 0 0 0 0 0 0 0 0 0 0 0 0 0 0 0 0 0 0 0 0 0 0 0 -0 0 -0 -0 -0
-0 -0 -0 -0 -0 -0 -0 -0 0 -0 -0 0 0 -0 -0 -0 0 0 0 0 0 0 0 0 0 0 0 0 0 0 0 0 0 0 0 0 0 0 0 0 0 0 0 0 0 0 -0 0 0 0 0 -0 -0 -0
-0 -0 -0 -0 -0 -0 -0 0 0 0 -0 0 0 0 0 0 0 0 0 0 0 0 0 0 0 0 0 0 0 0 0 0 0 0 0 0 0 0 0 0 0 0 0 0 0 0 0 -0 -0 0 -0 -0 -0 -0
-0 -0 -0 -0 -0 -0 -0 0 0 0 0 0 0 0 0 0 0 0 0 0 0 0 0 0 0 0 0 0 0 0 0 0 0 0 0 0 0 0 0 0 0 0 0 0 0 0 0 -0 -0 0 0 0 -0 -0
-0 -0 -0 -0 -0 -0 -0 -0 0 0 0 0 0 0 0 0 0 0 0 0 0 0 0 0 0 0 0 0 0 0 0 0 0 0 0 0 0 0 0 0 0 0 0 0 0 0 0 0 -0 0 0 0 -0 -0
-0 -0 -0 -0 -0 -0 -0 -0 0 0 0 0 0 0 0 0 0 0 0 0 0 0 0 0 0 0 0 0 0 0 0 0 0 0 0 0 0 0 0 0 0 0 0 0 0 0 0 0 0 0 0 0 0 0
0 -0 -0 -0 -0 -0 -0 -0 0 0 0 0 0 0 0 0 0 0 0 0 0 0 0 0 0 0 0 0 0 0 0 0 0 0 0 0 0 0 0 0 0 0 0 0 0 0 0 0 0 0 0 0 0 0
0 0 0 0 -0 0 0 0 0 0 0 0 0 0 0 0 0 0 0 0 0 0 0 0 0 0 0 0 0 0 0 0 0 0 0 0 0 0 0 0 0 0 0 0 0 0 0 0 0 0 0 0 0 0
-0 -0 -0 0 0 0 0 0 0 0 0 0 0 0 0 0 0 0 0 0 0 0 0 0 0 0 0 0 0 0 0 0 0 0 0 0 0 0 0 0 0 0 0 0 0 0 0 0 0 0 0 0 0 0
-0 0 -0 -0 -0 0 0 0 0 0 0 0 0 0 0 0 0 0 0 0 0 0 0 0 0 0 0 0 0 0 0 0 0 0 0 0 0 0 -0 0 0 0 0 0 0 0 0 0 0 0 0 0 0 0
0 0 -0 -0 -0 -0 0 0 0 0 0 0 0 0 0 0 0 0 0 0 0 0 0 0 0 0 0 0 0 0 0 0 0 0 0 0 0 -0 -0 -0 0 0 0 0 0 0 0 0 0 0 0 0 0 0
0 0 0 -0 0 0 -0 0 0 0 0 0 0 0 0 0 0 0 0 0 0 0 0 0 0 0 0 0 0 0 0 0 0 0 0 0 0 -0 -0 -0 -0 -0 0 0 0 0 0 0 -0 0 0 0 0 0
0 0 -0 -0 0 0 0 0 0 0 0 0 0 0 0 0 0 0 0 0 0 0 0 0 0 0 0 0 0 0 0 0 0 0 0 0 0 0 -0 -0 0 0 0 -0 -0 -0 -0 0 0 0 0 0 -0 0
0 0 -0 -0 0 0 0 0 0 0 0 0 0 0 0 0 0 0 0 0 0 0 0 0 0 0 0 0 0 0 0 0 0 0 0 0 -0 -0 -0 -0 -0 -0 -0 -0 -0 -0 -0 -0 -0 -0 -0 -0 -0 -0
0 -0 -0 -0 0 0 0 0 0 0 0 0 -0 -0 0 0 0 0 0 0 0 0 0 0 0 0 0 0 0 0 0 0 0 0 0 0 0 0 0 0 0 0 -0 -0 -0 -0 -0 -0 -0 -0 -0 -0 -0 -0
0 0 0 0 0 0 0 0 0 0 0 0 0 0 0 0 0 0 0 0 0 0 0 0 0 0 0 0 0 0 0 0 0 0 0 0 0 0 0 0 0 -0 -0 -0 -0 -0 -0 -0 -0 -0 -0 -0 -0 -0
0 0 0 0 0 0 0 0 0 0 0 0 0 0 0 0 0 0 0 0 0 0 0 0 0 0 0 0 0 0 0 0 0 0 0 0 0 0 0 0 0 0 0 -0 -0 -0 -0 -0 -0 -0 -0 -0 -0 -0
0 0 0 0 0 0 0 0 0 0 0 0 0 0 0 0 0 0 0 0 0 0 0 0 0 0 0 0 0 0 0 0 0 0 -0 0 0 0 0 0 0 0 0 -0 0 -0 -0 -0 -0 -0 -0 -0 -0 -0
0 0 0 0 0 0 0 0 0 0 0 0 0 0 0 0 0 0 0 0 0 0 0 0 0 0 0 0 0 0 0 0 0 -0 0 0 0 -0 0 0 0 0 0 0 0 0 0 -0 -0 -0 -0 -0 -0 -0
0 0 0 0 0 0 0 0 0 0 0 0 0 0 0 0 0 0 0 0 0 0 0 0 0 0 0 0 0 0 0 0 0 0 0 0 0 -0 -0 -0 -0 0 0 0 0 0 0 0 0 0 0 0 0 0
0 0 0 0 0 0 0 0 0 0 0 0 0 0 0 0 0 0 0 0 0 0 0 0 0 0 0 0 0 0 0 0 0 0 0 -0 -0 0 -0 -0 -0 0 0 0 0 0 0 0 0 0 0 0 0 0
0 0 0 0 0 0 0 0 0 0 0 0 0 0 0 0 0 0 0 0 0 0 0 0 0 -0 0 0 0 0 0 -0 -0 0 0 0 0 0 0 0 0 0 0 0 0 0 0 0 0 0 0 0 0 0
0 0 0 0 0 0 0 0 0 0 0 0 0 0 0 0 0 0 0 0 0 0 0 0 0 0 0 0 0 0 0 0 -0 -0 -0 0 0 0 0 0 0 0 0 0 0 0 0 0 0 0 0 0 0 0
0 0 0 0 0 0 0 0 0 0 0 0 0 0 0 0 0 0 0 0 0 0 0 0 0 0 0 0 0 0 0 0 0 0 0 0 0 0 0 0 0 0 0 0 0 0 0 0 0 0 0 0 0 0
0 0 0 0 0 0 0 0 0 0 0 0 0 0 0 0 0 0 0 0 0 0 0 0 0 0 0 0 0 0 0 0 0 0 0 0 0 0 0 0 0 0 0 0 0 0 0 0 0 0 0 0 0 0
0 0 0 0 0 0 0 0 0 0 0 0 0 0 0 0 0 0 0 0 0 0 0 0 0 0 0 0 0 0 0 0 0 0 0 0 0 0 0 0 0 0 0 0 0 0 0 0 0 0 0 0 0 0
0 0 0 0 0 0 0 0 0 0 0 0 0 0 0 0 0 0 0 0 0 0 0 0 0 0 0 0 0 0 0 0 0 0 0 0 0 0 0 0 0 0 0 0 0 0 0 0 0 0 0 0 0 0
0 0 0 0 0 0 0 0 0 0 0 0 0 0 0 0 0 0 0 0 0 0 0 0 0 0 0 0 0 0 0 0 0 0 0 0 0 0 0 0 0 0 0 0 0 0 0 0 0 0 0 0 0 0
Wind_Speed_500mb
67 58 62 63 63 63 77 81 81 84 79 74 65 59 53 50 41 40 51 37 40 26 31 26 36 37 27 29 9 18 12 5 7 6 7 7 6 11 5 9 15 15 17 10 14 19 27 55 8 22 40 63 76 70
70 59 50 54 58 58 59 62 58 54 49 43 35 28 26 28 30 28 55 57 51 31 32 32 30 33 20 19 34 32 13 12 16 7 1 6 1 1 8 7 6 9 18 13 18 14 29 69 44 28 27 27 48 55
82 76 51 62 50 52 57 55 50 46 43 43 40 36 32 28 26 22 41 42 54 53 32 21 18 27 22 26 26 14 9 15 16 9 13 6 7 7 7 13 11 10 16 17 24 34 39 67 69 39 37 54 71 73
76 72 83 67 74 64 52 51 47 44 47 46 43 38 35 31 31 25 41 35 30 21 10 8 14 19 25 22 23 17 16 15 14 10 6 6 6 18 7 5 7 11 4 16 25 41 44 63 25 30 52 67 74 77
78 70 65 71 67 66 62 53 50 48 49 47 46 47 48 47 41 44 47 39 24 12 11 12 23 13 8 21 27 25 17 16 8 5 4 6 10 3 5 1 11 9 5 11 20 15 14 28 39 46 78 77 76 80
70 62 50 60 65 63 53 48 43 42 42 44 42 43 44 46 47 31 18 29 27 27 14 6 10 15 15 6 10 14 16 12 12 13 9 13 19 4 7 7 15 16 16 13 20 51 54 72 81 49 49 68 80 90
57 58 57 48 54 54 49 45 42 42 41 38 36 35 34 26 13 21 17 17 18 15 10 7 5 7 11 6 7 9 13 10 14 7 12 16 16 14 6 26 31 34 42 47 42 43 37 17 31 66 71 75 80 86
44 45 45 42 42 42 39 38 33 28 29 30 32 34 35 38 42 40 38 25 16 15 13 7 3 6 18 7 6 5 5 9 15 11 8 5 6 8 5 31 40 41 50 30 22 41 52 67 63 62 64 68 76 78
43 39 37 35 31 27 25 25 28 30 29 30 28 24 20 18 16 20 27 26 28 19 11 9 6 3 19 12 6 2 1 2 10 3 5 6 7 6 12 41 43 42 33 50 64 61 46 49 59 61 62 61 63 70
38 38 31 29 27 24 20 17 17 18 16 16 14 11 12 11 18 13 11 9 14 18 16 7 5 4 17 19 8 6 6 5 1 4 8 6 3 2 19 38 36 38 40 44 55 46 64 64 62 62 58 54 53 59
32 31 32 24 23 21 17 11 9 9 9 9 10 10 16 15 9 10 11 16 17 8 16 13 15 5 11 1 5 3 4 4 3 3 5 2 1 10 42 46 41 37 37 36 37 44 44 47 54 57 57 51 47 48
27 27 27 25 20 18 17 13 7 3 8 8 10 15 8 8 10 12 2 7 10 1 13 9 8 8 6 5 1 5 3 4 4 2 3 2 1 36 46 49 45 38 36 34 29 34 35 35 36 39 39 40 37 35
23 25 24 23 21 16 14 12 11 10 10 6 4 6 13 15 15 9 3 7 5 6 11 16 6 9 6 4 6 2 5 1 11 6 2 3 13 41 44 46 44 36 34 31 30 28 28 29 29 36 38 32 30 29
21 23 23 22 19 16 10 7 5 4 4 5 11 12 8 9 2 7 6 6 1 3 17 20 9 5 7 5 2 6 1 6 4 5 4 1 29 41 40 39 40 41 38 36 35 33 34 35 38 39 38 39 41 44
17 20 25 16 11 12 12 9 4 2 8 11 9 4 4 4 3 3 1 1 3 8 17 4 4 2 5 4 3 4 7 1 6 5 1 16 31 34 35 35 36 37 38 38 37 37 36 35 38 41 43 44 42 41
17 17 24 24 7 6 7 11 7 11 11 10 13 10 6 5 1 2 0 4 5 13 2 3 3 7 4 5 8 7 6 8 4 3 4 16 22 26 30 29 29 30 32 33 34 35 35 37 38 41 44 45 44 45
22 20 18 29 19 10 5 7 12 14 11 8 10 15 11 11 7 2 7 7 16 2 3 5 7 10 1 7 3 6 7 2 3 5 5 10 16 22 25 25 27 29 30 30 31 33 34 33 34 37 42 43 43 46
22 23 16 13 13 22 31 15 11 10 13 12 8 7 11 9 5 5 11 17 9 2 3 5 6 6 7 8 7 6 6 5 5 1 3 5 9 14 18 22 24 26 26 27 29 29 32 36 40 44 41 40 41 42
27 21 15 17 20 8 8 11 11 10 9 7 6 6 4 4 7 10 14 11 4 4 4 3 7 4 6 9 8 9 8 6 4 2 1 3 7 11 14 17 21 23 24 25 28 32 34 37 38 39 40 42 44 42
22 24 20 11 15 8 8 10 10 9 6 3 3 2 3 2 5 5 10 7 3 1 1 1 7 6 8 10 10 8 5 4 2 3 5 3 5 8 10 13 16 19 20 21 22 24 25 27 31 36 39 42 42 44
15 16 16 9 15 15 11 8 10 9 6 3 5 3 1 1 3 1 4 5 7 6 6 8 9 12 11 9 9 9 9 8 7 6 5 4 2 6 8 13 16 19 20 19 21 24 27 30 33 36 39 39 40 42
9 10 7 12 10 9 11 14 8 5 3 3 5 9 3 0 3 3 18 4 6 4 7 9 10 11 11 10 10 9 9 7 5 3 2 3 4 3 3 8 11 14 20 22 24 25 27 31 34 36 38 40 43 45
5 5 7 9 7 8 5 6 3 5 5 9 8 5 5 7 8 16 6 6 7 10 12 12 12 11 11 11 10 9 8 6 4 3 2 2 3 5 9 14 18 16 15 17 20 24 30 33 36 39 42 44 46 45
3 5 6 8 10 5 4 5 5 4 4 7 6 7 7 10 17 2 5 7 13 18 17 16 16 16 15 16 15 14 13 12 10 9 8 6 6 7 9 13 15 18 19 19 22 25 29 32 35 38 40 42 44 47
4 12 7 8 8 4 9 9 10 7 0 1 2 6 5 9 5 4 5 8 22 23 24 23 22 20 18 15 14 13 11 9 8 7 6 5 5 5 7 13 16 18 20 23 27 29 31 33 35 37 39 42 44 46
10 7 6 4 0 4 8 4 4 7 5 1 9 3 3 5 3 11 7 9 18 20 22 23 21 23 21 18 16 14 12 10 8 6 5 6 9 11 16 19 19 22 26 28 30 30 31 33 34 35 36 39 43 48
5 3 5 3 1 5 7 6 5 3 5 9 5 3 5 1 10 10 9 15 15 14 16 18 18 17 16 17 17 15 13 11 8 6 7 10 14 17 20 22 23 27 29 29 30 32 33 34 35 38 40 40 44 50
7 10 7 8 6 6 5 2 7 10 7 9 12 7 11 16 9 6 12 15 19 18 18 19 19 21 22 20 18 17 17 15 14 15 15 17 15 19 23 23 27 32 31 31 32 33 34 36 38 40 44 48 51 52
5 7 3 5 5 8 13 12 9 7 8 15 7 7 11 13 12 11 17 21 24 27 27 25 24 24 25 26 25 25 24 24 24 26 27 25 25 27 25 26 27 28 27 26 27 28 31 35 39 43 46 49 50 50
7 3 2 3 5 8 9 16 9 12 17 25 20 25 35 59 65 57 55 54 49 43 39 35 33 35 33 31 29 29 28 28 29 30 30 26 27 25 25 24 24 23 22 20 21 23 28 31 34 36 38 39 40 41
7 7 5 6 8 6 10 16 26 35 33 27 37 42 52 46 64 44 36 33 44 66 73 67 62 54 44 34 26 23 24 24 21 20 20 21 21 21 21 22 21 19 19 21 23 26 28 31 34 37 39 41 42 45
6 6 4 3 4 12 21 8 11 11 11 9 9 11 14 14 14 8 12 26 29 24 37 53 43 29 24 23 23 20 17 16 15 15 15 15 16 17 17 17 15 15 17 21 24 26 29 33 36 38 41 42 44 47
2 6 8 7 6 5 7 15 8 9 10 8 8 8 8 9 14 8 22 27 28 9 18 29 36 33 26 20 16 13 12 13 14 14 13 14 13 12 13 12 12 15 18 22 24 27 29 32 35 37 40 43 46 49
Wind_Direction_500mb
47 58 62 66 68 76 91 114 115 109 108 105 102 100 100 100 94 129 92 114 117 104 134 126 140 138 137 141 136 156 92 13 48 85 127 201 158 220 149 202 176 166 172 192 228 236 249 250 108 195 229 253 263 264
50 51 62 69 75 81 75 82 83 90 99 104 102 96 89 90 96 109 98 109 113 106 125 123 130 155 161 148 133 160 148 147 158 98 77 94 149 214 174 242 204 235 201 207 184 206 225 254 230 262 272 302 287 307
54 61 64 72 86 82 87 91 93 93 94 92 92 94 94 95 100 115 116 110 107 108 103 119 123 144 147 151 155 127 164 147 169 128 150 177 231 136 182 238 216 250 227 229 250 256 254 266 270 280 310 317 307 305
52 61 62 73 75 93 90 90 89 91 92 92 89 88 88 92 101 116 125 120 114 113 107 83 136 153 164 157 174 167 149 156 145 157 131 189 186 196 227 243 178 211 168 234 249 255 268 263 262 296 307 308 303 302
47 56 67 69 69 81 86 90 89 90 89 88 85 87 90 92 99 113 111 97 94 88 127 100 104 55 185 208 214 209 218 207 158 100 130 228 250 173 230 288 245 29 287 243 257 33 310 277 284 299 313 307 309 314
43 51 73 75 72 75 79 81 85 86 90 90 88 90 98 108 113 108 84 72 77 93 103 74 76 50 53 133 142 176 201 198 187 178 206 233 232 255 245 238 40 6 331 321 281 307 293 284 298 303 295 304 302 304
42 50 61 79 79 78 73 76 81 85 89 89 86 84 79 69 75 80 90 78 68 68 86 81 40 79 60 99 113 146 189 199 203 224 230 240 224 235 243 257 9 342 327 307 303 317 300 289 301 295 304 299 304 303
45 46 57 62 70 73 68 72 76 87 85 85 86 83 76 75 80 76 71 60 49 68 70 92 298 73 24 41 86 117 146 193 209 233 245 344 69 338 234 357 340 335 329 318 293 306 295 297 302 300 302 307 307 307
44 46 48 54 60 66 71 62 69 81 86 92 88 71 66 45 45 67 64 56 51 63 93 68 104 246 358 27 2 357 233 253 225 190 39 7 1 45 329 333 332 333 326 309 314 314 315 308 312 314 317 313 309 306
39 44 47 46 47 52 59 68 71 71 77 82 51 42 56 47 77 59 37 37 36 36 49 85 352 325 2 2 335 342 210 222 285 54 80 60 91 142 339 335 326 322 321 323 323 324 323 321 323 326 323 320 317 313
35 42 42 48 47 46 53 61 63 76 76 37 39 56 82 98 54 44 48 39 355 36 22 20 25 336 15 224 256 319 248 264 282 339 103 51 336 349 333 338 340 334 329 326 315 312 316 316 320 324 328 330 329 327
33 39 43 43 44 47 46 51 64 40 0 29 82 87 78 45 50 74 21 345 43 130 358 15 321 288 295 297 256 305 212 4 279 54 66 340 258 339 343 342 344 343 340 338 337 331 331 334 334 334 339 340 341 339
33 37 36 37 39 44 48 57 69 95 97 86 60 64 21 358 50 74 357 325 25 2 7 346 298 319 313 331 295 29 47 134 117 43 244 208 331 343 346 345 346 352 351 353 356 357 357 358 7 8 8 9 10 14
36 37 32 22 27 37 41 48 81 93 78 51 36 27 59 349 29 174 174 185 95 271 333 326 284 337 332 349 288 74 273 58 44 338 280 313 342 341 345 350 352 355 0 4 8 12 15 18 25 30 32 37 42 45
25 24 18 9 19 24 29 25 66 121 75 70 43 72 66 118 109 119 113 157 204 303 320 261 301 339 333 22 42 64 33 162 190 229 194 333 342 339 347 355 358 360 4 11 16 19 22 26 31 40 43 48 52 55
15 16 11 12 41 37 38 35 53 76 64 60 61 85 95 96 42 138 209 143 334 331 106 91 104 63 340 141 53 204 129 223 185 193 297 338 348 344 349 357 1 5 10 17 23 26 27 29 35 40 44 47 49 51
20 20 25 36 43 45 33 49 50 56 59 61 59 72 94 83 95 54 351 341 335 347 145 135 74 206 18 48 323 204 199 174 200 257 357 359 354 352 356 2 10 17 22 26 31 33 37 40 43 47 47 44 42 43
20 19 26 19 5 43 56 57 71 72 70 78 88 69 75 72 54 29 356 345 355 5 163 173 128 70 163 170 263 234 182 212 249 198 62 10 358 3 7 10 15 18 22 27 30 31 32 34 35 37 38 38 41 42
23 25 20 22 27 54 52 49 46 87 82 101 92 77 125 103 37 14 6 7 88 112 138 110 73 179 225 214 202 175 183 171 189 251 346 57 35 21 16 15 17 20 22 22 21 22 25 27 30 31 30 30 30 29
14 19 21 352 357 56 68 54 53 78 92 109 82 47 121 92 357 349 9 23 91 205 100 130 207 219 189 159 159 170 180 194 213 156 140 96 36 21 20 25 26 24 20 17 20 25 29 27 27 27 24 21 18 18
19 20 25 33 47 62 75 58 60 68 93 76 23 25 202 206 173 307 327 343 194 217 209 193 170 154 151 158 166 171 168 158 150 155 161 172 11 25 21 17 14 5 7 14 16 17 18 18 17 15 12 7 5 4
7 4 22 41 61 71 68 44 70 59 20 24 351 350 347 293 5 358 327 223 221 197 177 161 160 157 158 160 157 155 155 158 157 153 98 78 99 90 18 3 6 358 349 352 353 360 1 1 358 354 351 350 350 348
347 24 64 53 86 55 84 53 87 34 73 342 335 4 334 340 328 331 265 236 217 199 181 177 173 174 177 181 186 194 201 205 210 213 243 307 324 328 332 331 334 340 342 333 337 340 342 343 342 340 341 342 343 346
68 79 53 49 44 103 91 66 58 68 68 30 35 322 323 314 327 358 244 243 207 196 202 203 203 202 206 208 207 206 202 201 205 213 228 249 268 289 306 307 317 327 330 330 330 330 331 333 336 337 339 342 345 346
125 15 38 31 46 81 38 6 347 50 153 295 29 307 307 333 8 320 237 249 211 207 206 212 216 220 224 223 216 212 215 222 230 244 258 262 281 300 324 326 326 328 329 327 329 332 336 337 340 344 346 346 345 345
76 1 57 173 317 113 184 169 209 208 150 242 234 284 345 76 42 247 236 230 210 212 215 214 211 211 216 214 217 226 229 236 238 246 264 304 313 318 327 326 324 325 330 332 331 335 339 341 343 346 348 346 344 340
99 249 128 129 139 143 97 113 130 124 169 201 217 127 81 181 246 248 225 210 210 209 205 206 213 213 208 213 210 211 206 208 214 234 279 299 303 304 318 323 324 329 331 333 334 337 341 344 345 345 344 343 341 338
111 156 163 178 187 205 141 142 170 210 220 183 149 202 191 199 235 213 203 204 209 216 218 219 219 219 223 223 221 220 221 228 243 258 273 292 306 309 314 316 323 327 331 331 334 337 341 342 340 338 337 339 339 337
99 131 144 107 173 212 224 206 224 217 205 187 197 240 243 232 234 231 235 224 224 224 225 227 229 232 234 236 236 238 243 251 260 272 281 286 292 299 304 313 319 319 322 324 326 332 336 334 333 335 335 334 334 336
163 155 132 179 183 234 206 207 226 234 239 239 256 270 272 271 275 276 272 264 255 247 239 235 237 241 244 246 247 248 252 258 266 272 276 279 280 292 304 310 309 312 314 315 322 328 329 328 327 329 331 333 335 339
153 174 178 220 259 265 261 267 275 276 270 265 260 258 268 288 295 294 276 273 264 250 239 238 241 241 242 246 243 238 245 260 263 261 260 266 277 292 300 304 309 311 315 322 327 330 332 332 335 341 344 346 347 347
171 194 193 243 270 293 305 290 289 280 281 274 271 259 289 282 277 291 327 331 320 298 233 218 214 208 210 208 216 228 236 248 260 265 268 279 289 293 296 299 304 310 318 321 327 333 337 340 344 347 348 349 350 350
252 235 244 274 300 302 315 317 286 295 267 271 268 273 261 264 265 313 341 334 337 300 181 185 183 182 180 186 194 216 238 258 269 270 281 285 285 292 296 298 308 314 319 325 333 339 341 344 347 349 349 349 351 351
Wind_Speed_850mb
67 58 62 63 63 63 77 81 81 84 79 74 65 59 53 50 41 40 51 37 40 26 31 26 36 37 27 29 9 18 12 5 7 6 7 7 6 11 5 9 15 15 17 10 14 19 27 55 8 22 40 63 76 70
70 59 50 54 58 58 59 62 58 54 49 43 35 28 26 28 30 28 55 57 51 31 32 32 30 33 20 19 34 32 13 12 16 7 1 6 1 1 8 7 6 9 18 13 18 14 29 69 44 28 27 27 48 55
82 76 51 62 50 52 57 55 50 46 43 43 40 36 32 28 26 22 41 42 54 53 32 21 18 27 22 26 26 14 9 15 16 9 13 6 7 7 7 13 11 10 16 17 24 34 39 67 69 39 37 54 71 73
76 72 83 67 74 64 52 51 47 44 47 46 43 38 35 31 31 25 41 35 30 21 10 8 14 19 25 22 23 17 16 15 14 10 6 6 6 18 7 5 7 11 4 16 25 41 44 63 25 30 52 67 74 77
78 70 65 71 67 66 62 53 50 48 49 47 46 47 48 47 41 44 47 39 24 12 11 12 23 13 8 21 27 25 17 16 8 5 4 6 10 3 5 1 11 9 5 11 20 15 14 28 39 46 78 77 76 80
70 62 50 60 65 63 53 48 43 42 42 44 42 43 44 46 47 31 18 29 27 27 14 6 10 15 15 6 10 14 16 12 12 13 9 13 19 4 7 7 15 16 16 13 20 51 54 72 81 49 49 68 80 90
57 58 57 48 54 54 49 45 42 42 41 38 36 35 34 26 13 21 17 17 18 15 10 7 5 7 11 6 7 9 13 10 14 7 12 16 16 14 6 26 31 34 42 47 42 43 37 17 31 66 71 75 80 86
44 45 45 42 42 42 39 38 33 28 29 30 32 34 35 38 42 40 38 25 16 15 13 7 3 6 18 7 6 5 5 9 15 11 8 5 6 8 5 31 40 41 50 30 22 41 52 67 63 62 64 68 76 78
43 39 37 35 31 27 25 25 28 30 29 30 28 24 20 18 16 20 27 26 28 19 11 9 6 3 19 12 6 2 1 2 10 3 5 6 7 6 12 41 43 42 33 50 64 61 46 49 59 61 62 61 63 70
38 38 31 29 27 24 20 17 17 18 16 16 14 11 12 11 18 13 11 9 14 18 16 7 5 4 17 19 8 6 6 5 1 4 8 6 3 2 19 38 36 38 40 44 55 46 64 64 62 62 58 54 53 59
32 31 32 24 23 21 17 11 9 9 9 9 10 10 16 15 9 10 11 16 17 8 16 13 15 5 11 1 5 3 4 4 3 3 5 2 1 10 42 46 41 37 37 36 37 44 44 47 54 57 57 51 47 48
27 27 27 25 20 18 17 13 7 3 8 8 10 15 8 8 10 12 2 7 10 1 13 9 8 8 6 5 1 5 3 4 4 2 3 2 1 36 46 49 45 38 36 34 29 34 35 35 36 39 39 40 37 35
23 25 24 23 21 16 14 12 11 10 10 6 4 6 13 15 15 9 3 7 5 6 11 16 6 9 6 4 6 2 5 1 11 6 2 3 13 41 44 46 44 36 34 31 30 28 28 29 29 36 38 32 30 29
21 23 23 22 19 16 10 7 5 4 4 5 11 12 8 9 2 7 6 6 1 3 17 20 9 5 7 5 2 6 1 6 4 5 4 1 29 41 40 39 40 41 38 36 35 33 34 35 38 39 38 39 41 44
17 20 25 16 11 12 12 9 4 2 8 11 9 4 4 4 3 3 1 1 3 8 17 4 4 2 5 4 3 4 7 1 6 5 1 16 31 34 35 35 36 37 38 38 37 37 36 35 38 41 43 44 42 41
17 17 24 24 7 6 7 11 7 11 11 10 13 10 6 5 1 2 0 4 5 13 2 3 3 7 4 5 8 7 6 8 4 3 4 16 22 26 30 29 29 30 32 33 34 35 35 37 38 41 44 45 44 45
22 20 18 29 19 10 5 7 12 14 11 8 10 15 11 11 7 2 7 7 16 2 3 5 7 10 1 7 3 6 7 2 3 5 5 10 16 22 25 25 27 29 30 30 31 33 34 33 34 37 42 43 43 46
22 23 16 13 13 22 31 15 11 10 13 12 8 7 11 9 5 5 11 17 9 2 3 5 6 6 7 8 7 6 6 5 5 1 3 5 9 14 18 22 24 26 26 27 29 29 32 36 40 44 41 40 41 42
27 21 15 17 20 8 8 11 11 10 9 7 6 6 4 4 7 10 14 11 4 4 4 3 7 4 6 9 8 9 8 6 4 2 1 3 7 11 14 17 21 23 24 25 28 32 34 37 38 39 40 42 44 42
22 24 20 11 15 8 8 10 10 9 6 3 3 2 3 2 5 5 10 7 3 1 1 1 7 6 8 10 10 8 5 4 2 3 5 3 5 8 10 13 16 19 20 21 22 24 25 27 31 36 39 42 42 44
15 16 16 9 15 15 11 8 10 9 6 3 5 3 1 1 3 1 4 5 7 6 6 8 9 12 11 9 9 9 9 8 7 6 5 4 2 6 8 13 16 19 20 19 21 24 27 30 33 36 39 39 40 42
9 10 7 12 10 9 11 14 8 5 3 3 5 9 3 0 3 3 18 4 6 4 7 9 10 11 11 10 10 9 9 7 5 3 2 3 4 3 3 8 11 14 20 22 24 25 27 31 34 36 38 40 43 45
5 5 7 9 7 8 5 6 3 5 5 9 8 5 5 7 8 16 6 6 7 10 12 12 12 11 11 11 10 9 8 6 4 3 2 2 3 5 9 14 18 16 15 17 20 24 30 33 36 39 42 44 46 45
3 5 6 8 10 5 4 5 5 4 4 7 6 7 7 10 17 2 5 7 13 18 17 16 16 16 15 16 15 14 13 12 10 9 8 6 6 7 9 13 15 18 19 19 22 25 29 32 35 38 40 42 44 47
4 12 7 8 8 4 9 9 10 7 0 1 2 6 5 9 5 4 5 8 22 23 24 23 22 20 18 15 14 13 11 9 8 7 6 5 5 5 7 13 16 18 20 23 27 29 31 33 35 37 39 42 44 46
10 7 6 4 0 4 8 4 4 7 5 1 9 3 3 5 3 11 7 9 18 20 22 23 21 23 21 18 16 14 12 10 8 6 5 6 9 11 16 19 19 22 26 28 30 30 31 33 34 35 36 39 43 48
5 3 5 3 1 5 7 6 5 3 5 9 5 3 5 1 10 10 9 15 15 14 16 18 18 17 16 17 17 15 13 11 8 6 7 10 14 17 20 22 23 27 29 29 30 32 33 34 35 38 40 40 44 50
7 10 7 8 6 6 5 2 7 10 7 9 12 7 11 16 9 6 12 15 19 18 18 19 19 21 22 20 18 17 17 15 14 15 15 17 15 19 23 23 27 32 31 31 32 33 34 36 38 40 44 48 51 52
5 7 3 5 5 8 13 12 9 7 8 15 7 7 11 13 12 11 17 21 24 27 27 25 24 24 25 26 25 25 24 24 24 26 27 25 25 27 25 26 27 28 27 26 27 28 31 35 39 43 46 49 50 50
7 3 2 3 5 8 9 16 9 12 17 25 20 25 35 59 65 57 55 54 49 43 39 35 33 35 33 31 29 29 28 28 29 30 30 26 27 25 25 24 24 23 22 20 21 23 28 31 34 36 38 39 40 41
7 7 5 6 8 6 10 16 26 35 33 27 37 42 52 46 64 44 36 33 44 66 73 67 62 54 44 34 26 23 24 24 21 20 20 21 21 21 21 22 21 19 19 21 23 26 28 31 34 37 39 41 42 45
6 6 4 3 4 12 21 8 11 11 11 9 9 11 14 14 14 8 12 26 29 24 37 53 43 29 24 23 23 20 17 16 15 15 15 15 16 17 17 17 15 15 17 21 24 26 29 33 36 38 41 42 44 47
2 6 8 7 6 5 7 15 8 9 10 8 8 8 8 9 14 8 22 27 28 9 18 29 36 33 26 20 16 13 12 13 14 14 13 14 13 12 13 12 12 15 18 22 24 27 29 32 35 37 40 43 46 49
Wind_Direction_850mb
47 58 62 66 68 76 91 114 115 109 108 105 102 100 100 100 94 129 92 114 117 104 134 126 140 138 137 141 136 156 92 13 48 85 127 201 158 220 149 202 176 166 172 192 228 236 249 250 108 195 229 253 263 264
50 51 62 69 75 81 75 82 83 90 99 104 102 96 89 90 96 109 98 109 113 106 125 123 130 155 161 148 133 160 148 147 158 98 77 94 149 214 174 242 204 235 201 207 184 206 225 254 230 262 272 302 287 307
54 61 64 72 86 82 87 91 93 93 94 92 92 94 94 95 100 115 116 110 107 108 103 119 123 144 147 151 155 127 164 147 169 128 150 177 231 136 182 238 216 250 227 229 250 256 254 266 270 280 310 317 307 305
52 61 62 73 75 93 90 90 89 91 92 92 89 88 88 92 101 116 125 120 114 113 107 83 136 153 164 157 174 167 149 156 145 157 131 189 186 196 227 243 178 211 168 234 249 255 268 263 262 296 307 308 303 302
47 56 67 69 69 81 86 90 89 90 89 88 85 87 90 92 99 113 111 97 94 88 127 100 104 55 185 208 214 209 218 207 158 100 130 228 250 173 230 288 245 29 287 243 257 33 310 277 284 299 313 307 309 314
43 51 73 75 72 75 79 81 85 86 90 90 88 90 98 108 113 108 84 72 77 93 103 74 76 50 53 133 142 176 201 198 187 178 206 233 232 255 245 238 40 6 331 321 281 307 293 284 298 303 295 304 302 304
42 50 61 79 79 78 73 76 81 85 89 89 86 84 79 69 75 80 90 78 68 68 86 81 40 79 60 99 113 146 189 199 203 224 230 240 224 235 243 257 9 342 327 307 303 317 300 289 301 295 304 299 304 303
45 46 57 62 70 73 68 72 76 87 85 85 86 83 76 75 80 76 71 60 49 68 70 92 298 73 24 41 86 117 146 193 209 233 245 344 69 338 234 357 340 335 329 318 293 306 295 297 302 300 302 307 307 307
44 46 48 54 60 66 71 62 69 81 86 92 88 71 66 45 45 67 64 56 51 63 93 68 104 246 358 27 2 357 233 253 225 190 39 7 1 45 329 333 332 333 326 309 314 314 315 308 312 314 317 313 309 306
39 44 47 46 47 52 59 68 71 71 77 82 51 42 56 47 77 59 37 37 36 36 49 85 352 325 2 2 335 342 210 222 285 54 80 60 91 142 339 335 326 322 321 323 323 324 323 321 323 326 323 320 317 313
35 42 42 48 47 46 53 61 63 76 76 37 39 56 82 98 54 44 48 39 355 36 22 20 25 336 15 224 256 319 248 264 282 339 103 51 336 349 333 338 340 334 329 326 315 312 316 316 320 324 328 330 329 327
33 39 43 43 44 47 46 51 64 40 0 29 82 87 78 45 50 74 21 345 43 130 358 15 321 288 295 297 256 305 212 4 279 54 66 340 258 339 343 342 344 343 340 338 337 331 331 334 334 334 339 340 341 339
33 37 36 37 39 44 48 57 69 95 97 86 60 64 21 358 50 74 357 325 25 2 7 346 298 319 313 331 295 29 47 134 117 43 244 208 331 343 346 345 346 352 351 353 356 357 357 358 7 8 8 9 10 14
36 37 32 22 27 37 41 48 81 93 78 51 36 27 59 349 29 174 174 185 95 271 333 326 284 337 332 349 288 74 273 58 44 338 280 313 342 341 345 350 352 355 0 4 8 12 15 18 25 30 32 37 42 45
25 24 18 9 19 24 29 25 66 121 75 70 43 72 66 118 109 119 113 157 204 303 320 261 301 339 333 22 42 64 33 162 190 229 194 333 342 339 347 355 358 360 4 11 16 19 22 26 31 40 43 48 52 55
15 16 11 12 41 37 38 35 53 76 64 60 61 85 95 96 42 138 209 143 334 331 106 91 104 63 340 141 53 204 129 223 185 193 297 338 348 344 349 357 1 5 10 17 23 26 27 29 35 40 44 47 49 51
20 20 25 36 43 45 33 49 50 56 59 61 59 72 94 83 95 54 351 341 335 347 145 135 74 206 18 48 323 204 199 174 200 257 357 359 354 352 356 2 10 17 22 26 31 33 37 40 43 47 47 44 42 43
20 19 26 19 5 43 56 57 71 72 70 78 88 69 75 72 54 29 356 345 355 5 163 173 128 70 163 170 263 234 182 212 249 198 62 10 358 3 7 10 15 18 22 27 30 31 32 34 35 37 38 38 41 42
23 25 20 22 27 54 52 49 46 87 82 101 92 77 125 103 37 14 6 7 88 112 138 110 73 179 225 214 202 175 183 171 189 251 346 57 35 21 16 15 17 20 22 22 21 22 25 27 30 31 30 30 30 29
14 19 21 352 357 56 68 54 53 78 92 109 82 47 121 92 357 349 9 23 91 205 100 130 207 219 189 159 159 170 180 194 213 156 140 96 36 21 20 25 26 24 20 17 20 25 29 27 27 27 24 21 18 18
19 20 25 33 47 62 75 58 60 68 93 76 23 25 202 206 173 307 327 343 194 217 209 193 170 154 151 158 166 171 168 158 150 155 161 172 11 25 21 17 14 5 7 14 16 17 18 18 17 15 12 7 5 4
7 4 22 41 61 71 68 44 70 59 20 24 351 350 347 293 5 358 327 223 221 197 177 161 160 157 158 160 157 155 155 158 157 153 98 78 99 90 18 3 6 358 349 352 353 360 1 1 358 354 351 350 350 348
347 24 64 53 86 55 84 53 87 34 73 342 335 4 334 340 328 331 265 236 217 199 181 177 173 174 177 181 186 194 201 205 210 213 243 307 324 328 332 331 334 340 342 333 337 340 342 343 342 340 341 342 343 346
68 79 53 49 44 103 91 66 58 68 68 30 35 322 323 314 327 358 244 243 207 196 202 203 203 202 206 208 207 206 202 201 205 213 228 249 268 289 306 307 317 327 330 330 330 330 331 333 336 337 339 342 345 346
125 15 38 31 46 81 38 6 347 50 153 295 29 307 307 333 8 320 237 249 211 207 206 212 216 220 224 223 216 212 215 222 230 244 258 262 281 300 324 326 326 328 329 327 329 332 336 337 340 344 346 346 345 345
76 1 57 173 317 113 184 169 209 208 150 242 234 284 345 76 42 247 236 230 210 212 215 214 211 211 216 214 217 226 229 236 238 246 264 304 313 318 327 326 324 325 330 332 331 335 339 341 343 346 348 346 344 340
99 249 128 129 139 143 97 113 130 124 169 201 217 127 81 181 246 248 225 210 210 209 205 206 213 213 208 213 210 211 206 208 214 234 279 299 303 304 318 323 324 329 331 333 334 337 341 344 345 345 344 343 341 338
111 156 163 178 187 205 141 142 170 210 220 183 149 202 191 199 235 213 203 204 209 216 218 219 219 219 223 223 221 220 221 228 243 258 273 292 306 309 314 316 323 327 331 331 334 337 341 342 340 338 337 339 339 337
99 131 144 107 173 212 224 206 224 217 205 187 197 240 243 232 234 231 235 224 224 224 225 227 229 232 234 236 236 238 243 251 260 272 281 286 292 299 304 313 319 319 322 324 326 332 336 334 333 335 335 334 334 336
163 155 132 179 183 234 206 207 226 234 239 239 256 270 272 271 275 276 272 264 255 247 239 235 237 241 244 246 247 248 252 258 266 272 276 279 280 292 304 310 309 312 314 315 322 328 329 328 327 329 331 333 335 339
153 174 178 220 259 265 261 267 275 276 270 265 260 258 268 288 295 294 276 273 264 250 239 238 241 241 242 246 243 238 245 260 263 261 260 266 277 292 300 304 309 311 315 322 327 330 332 332 335 341 344 346 347 347
171 194 193 243 270 293 305 290 289 280 281 274 271 259 289 282 277 291 327 331 320 298 233 218 214 208 210 208 216 228 236 248 260 265 268 279 289 293 296 299 304 310 318 321 327 333 337 340 344 347 348 349 350 350
252 235 244 274 300 302 315 317 286 295 267 271 268 273 261 264 265 313 341 334 337 300 181 185 183 182 180 186 194 216 238 258 269 270 281 285 285 292 296 298 308 314 319 325 333 339 341 344 347 349 349 349 351 351